HB9HUT-13 Weather Reports


Display with metric or nautical units.
time (UTC)temp
F
wind
direction
speed
MPH
gust
MPH
rain 1hr
in
rain 24hr
in
rain mn
in
humidity
%
barometer
mb
20260506043836 46 0 0.0 0.0 0.00 0.00 0.00 44 837.1
20260506042333 46 0 0.0 0.0 0.00 0.00 0.00 44 837.3
20260506040830 46 0 0.0 0.0 0.00 0.00 0.00 45 837.4
20260506035327 46 0 0.0 0.0 0.00 0.00 0.00 48 837.6
20260506033824 46 0 0.0 0.0 0.00 0.00 0.00 44 837.8
20260506032321 46 0 0.0 0.0 0.00 0.00 0.00 44 838.1
20260506030818 47 0 0.0 0.0 0.00 0.00 0.00 44 838.3
20260506025315 47 0 0.0 0.0 0.00 0.00 0.00 44 838.4
20260506023812 47 0 0.0 0.0 0.00 0.00 0.00 44 838.5
20260506022309 47 0 0.0 0.0 0.00 0.00 0.00 44 838.6
20260506020806 47 0 0.0 0.0 0.00 0.00 0.00 48 838.8
20260506015305 47 0 0.0 0.0 0.00 0.00 0.00 44 838.8
20260506013800 47 0 0.0 0.0 0.00 0.00 0.00 44 839.1
20260506012257 47 0 0.0 0.0 0.00 0.00 0.00 45 839.1
20260506010754 47 0 0.0 0.0 0.00 0.00 0.00 44 839.2
20260506005252 48 0 0.0 0.0 0.00 0.00 0.00 45 839.3
20260506003748 48 0 0.0 0.0 0.00 0.00 0.00 45 839.5
20260506002245 48 0 0.0 0.0 0.00 0.00 0.00 44 839.4
20260506000742 48 0 0.0 0.0 0.00 0.00 0.00 44 839.7
20260505235239 48 0 0.0 0.0 0.00 0.00 0.00 43 840.0
20260505233736 48 0 0.0 0.0 0.00 0.00 0.00 43 839.9
20260505232233 48 0 0.0 0.0 0.00 0.00 0.00 46 839.8
20260505230730 48 0 0.0 0.0 0.00 0.00 0.00 44 839.9
20260505225227 48 0 0.0 0.0 0.00 0.00 0.00 44 840.0
20260505223724 48 0 0.0 0.0 0.00 0.00 0.00 45 840.0
20260505222221 49 0 0.0 0.0 0.00 0.00 0.00 45 840.2
20260505220718 49 0 0.0 0.0 0.00 0.00 0.00 43 840.2
20260505215215 49 0 0.0 0.0 0.00 0.00 0.00 43 840.2
20260505212209 50 0 0.0 0.0 0.00 0.00 0.00 43 840.5
20260505210706 50 0 0.0 0.0 0.00 0.00 0.00 44 840.6
20260505205203 51 0 0.0 0.0 0.00 0.00 0.00 44 840.7
20260505203700 52 0 0.0 0.0 0.00 0.00 0.00 44 840.6
20260505202157 52 0 0.0 0.0 0.00 0.00 0.00 44 840.6
20260505200654 53 0 0.0 0.0 0.00 0.00 0.00 43 840.5
20260505195152 54 0 0.0 0.0 0.00 0.00 0.00 43 840.4
20260505193648 55 0 0.0 0.0 0.00 0.00 0.00 43 840.4
20260505192145 55 0 0.0 0.0 0.00 0.00 0.00 43 840.3
20260505190642 56 0 0.0 0.0 0.00 0.00 0.00 43 840.3
20260505185139 57 0 0.0 0.0 0.00 0.00 0.00 42 840.1
20260505183636 58 0 0.0 0.0 0.00 0.00 0.00 43 840.0
20260505182133 60 0 0.0 0.0 0.00 0.00 0.00 42 840.1
20260505180630 61 0 0.0 0.0 0.00 0.00 0.00 41 839.9
20260505175127 62 0 0.0 0.0 0.00 0.00 0.00 40 839.7
20260505173624 64 0 0.0 0.0 0.00 0.00 0.00 41 839.8
20260505172121 65 0 0.0 0.0 0.00 0.00 0.00 40 839.4
20260505170618 66 0 0.0 0.0 0.00 0.00 0.00 40 839.4
20260505165115 67 0 0.0 0.0 0.00 0.00 0.00 40 839.3
20260505163612 68 0 0.0 0.0 0.00 0.00 0.00 39 839.3
20260505162109 69 0 0.0 0.0 0.00 0.00 0.00 39 839.3
20260505160606 70 0 0.0 0.0 0.00 0.00 0.00 39 839.2
20260505152057 74 0 0.0 0.0 0.00 0.00 0.00 38 838.8
20260505150554 75 0 0.0 0.0 0.00 0.00 0.00 38 838.9
20260505140542 75 0 0.0 0.0 0.00 0.00 0.00 39 838.7
20260505125027 68 0 0.0 0.0 0.00 0.00 0.00 37 839.0
20260505123524 68 0 0.0 0.0 0.00 0.00 0.00 37 839.0
20260505122021 68 0 0.0 0.0 0.00 0.00 0.00 38 839.1
20260505120518 67 0 0.0 0.0 0.00 0.00 0.00 41 839.1
20260505113512 62 0 0.0 0.0 0.00 0.00 0.00 41 839.2
20260505112009 61 0 0.0 0.0 0.00 0.00 0.00 40 839.3
20260505110506 60 0 0.0 0.0 0.00 0.00 0.00 41 839.3
20260505101957 59 0 0.0 0.0 0.00 0.00 0.00 41 839.4
20260505100454 58 0 0.0 0.0 0.00 0.00 0.00 41 839.5
20260505094951 57 0 0.0 0.0 0.00 0.00 0.00 41 839.6
20260505093448 56 0 0.0 0.0 0.00 0.00 0.00 41 839.4
20260505091945 55 0 0.0 0.0 0.00 0.00 0.00 40 839.6
20260505090442 54 0 0.0 0.0 0.00 0.00 0.00 41 839.6
20260505084939 54 0 0.0 0.0 0.00 0.00 0.00 40 839.5
20260505083436 53 0 0.0 0.0 0.00 0.00 0.00 40 839.6
20260505081933 52 0 0.0 0.0 0.00 0.00 0.00 39 839.7
20260505080430 52 0 0.0 0.0 0.00 0.00 0.00 40 839.9
20260505074927 51 0 0.0 0.0 0.00 0.00 0.00 40 839.9
20260505073424 51 0 0.0 0.0 0.00 0.00 0.00 40 840.0
20260505071921 50 0 0.0 0.0 0.00 0.00 0.00 40 840.1
20260505070418 50 0 0.0 0.0 0.00 0.00 0.00 40 840.2
20260505064915 49 0 0.0 0.0 0.00 0.00 0.00 40 840.1
20260505063412 49 0 0.0 0.0 0.00 0.00 0.00 40 840.3
20260505061909 49 0 0.0 0.0 0.00 0.00 0.00 40 840.3
20260505060406 49 0 0.0 0.0 0.00 0.00 0.00 40 840.3
20260505054903 48 0 0.0 0.0 0.00 0.00 0.00 40 840.1
20260505053400 48 0 0.0 0.0 0.00 0.00 0.00 40 840.1
20260505051857 48 0 0.0 0.0 0.00 0.00 0.00 40 840.0
20260505050354 48 0 0.0 0.0 0.00 0.00 0.00 40 840.1